Flag for Germany Weather past 2 weeks in Lüdenscheid, North Rhine-Westphalia, Germany

Now
49 °F

Fog.


Feels Like: 49 °F
Forecast: 49 / 71 °F
Wind: 1 mph from Southeast

Location: Koeln / Bonn

Current Time: Jul 31, 2015 at 4:14:27 AM

Latest Report: Jul 31, 2015 at 3:00 AM


Visibility: 16 mi

Pressure: 30.13 "Hg

Humidity: 99%

Dew point: 48 °F

Location of LüdenscheidLocation

Historic Weather in Lüdenscheid — Graph

°F

Lüdenscheid temperature yesterday

Maximum temperature yesterday: 64 °F (at 2:00 PM)
Minimum temperature yesterday: 49 °F (at 5:00 AM)
Average temperature yesterday: 56 °F

Past Weeks' High & Low Weather Summary

 TemperatureHumidityPressure
High95 °F (Jul 17, 4:00 PM)99% (Jul 31, 3:00 AM)30.13 "Hg (Jul 31, 3:00 AM)
Low48 °F (Jul 26, 5:00 AM)18% (Jul 17, 6:00 PM)29.56 "Hg (Jul 25, 8:00 AM)
Average66 °F71%29.89 "Hg
* Reported Jul 16 3:00 AM — Jul 31 3:00 AM, Lüdenscheid, Weather by CustomWeather, © 2015

Note: Actual official high and low records may vary slightly from our data, if they occured in-between our weather recording intervals... More about our weather records

Advertising

Lüdenscheid weather history for previous 24 hours

 ConditionsComfort  
Time TempWeatherWind HumidityBarometerVisibility
3:00 AM
Fri, Jul 31
49 °FFog.1 mph99%30.13 "Hg16 mi
2:00 AM49 °FFog.1 mph97%30.13 "Hg19 mi
1:00 AM52 °FPassing clouds.1 mph96%30.12 "Hg28 mi
11:00 PM
Thu, Jul 30
54 °FOvercast.1 mph94%30.10 "Hg25 mi
10:00 PM54 °FOvercast.2 mph96%30.09 "Hg16 mi
9:00 PM56 °FSprinkles. Overcast.3 mph94%30.07 "Hg7 mi
8:00 PM57 °FOvercast.1 mph87%30.05 "Hg9 mi
7:00 PM57 °FOvercast.1 mph84%30.04 "Hg17 mi
6:00 PM55 °FSprinkles. Overcast.3 mph87%30.04 "Hg17 mi
5:00 PM61 °FOvercast.3 mph72%30.02 "Hg22 mi
4:00 PM58 °FThunderstorms. Overcast.5 mph82%30.02 "Hg25 mi
3:00 PM63 °FThundershowers. Overcast.3 mph59%30.00 "Hg14 mi
2:00 PM64 °FPartly sunny.2 mph64%30.00 "Hg25 mi
1:00 PM63 °FPartly sunny.5 mph62%30.00 "Hg28 mi
12:00 PM60 °FOvercast.3 mph67%30.00 "Hg25 mi
10:00 AM56 °FLight rain. Partly sunny.2 mph82%29.99 "Hg28 mi
9:00 AM54 °FOvercast.3 mph83%29.99 "Hg28 mi
8:00 AM52 °FOvercast.2 mph85%29.98 "Hg31 mi
7:00 AM50 °FOvercast.1 mph87%29.97 "Hg31 mi
5:00 AM49 °FPassing clouds.1 mph88%29.95 "Hg31 mi
4:00 AM50 °FPassing clouds.1 mph85%29.95 "Hg31 mi
Weather by CustomWeather, © 2015

See weather overviewHow to use our weather pages